This is the latest recevied weather packets stored in our database for station/object NN5DX-13. If no packets are shown the sender has not sent any weather packets the latest 10 day(s).
| Time | Temp. | Humidity | Pressure | Rain* | Wind** | Luminosity | Snow |
|---|---|---|---|---|---|---|---|
| 1777761918 | 21.11° C | 36% | 1020.7 hPa | 0 mm | - | - | - |
| 1777761617 | 21.11° C | 37% | 1020.8 hPa | 0 mm | - | - | - |
| 1777761317 | 21.11° C | 37% | 1020.7 hPa | 0 mm | - | - | - |
| 1777761017 | 21.67° C | 36% | 1020.8 hPa | 0 mm | - | - | - |
| 1777760717 | 21.67° C | 37% | 1021 hPa | 0 mm | - | - | - |
| 1777760417 | 21.67° C | 37% | 1021 hPa | 0 mm | - | - | - |
| 1777760117 | 21.67° C | 35% | 1021.2 hPa | 0 mm | - | - | - |
| 1777759818 | 22.22° C | 36% | 1021.3 hPa | 0 mm | - | - | - |
| 1777759517 | 21.67° C | 36% | 1021.3 hPa | 0 mm | - | - | - |
| 1777759237 | 22.22° C | 35% | 1021.4 hPa | 0 mm | - | - | - |
| 1777758918 | 21.67° C | 35% | 1021.6 hPa | 0 mm | - | - | - |
| 1777758618 | 22.22° C | 36% | 1021.6 hPa | 0 mm | - | - | - |
| 1777758317 | 22.22° C | 37% | 1021.6 hPa | 0 mm | - | - | - |
| 1777758017 | 21.67° C | 37% | 1021.8 hPa | 0 mm | - | - | - |
| 1777757717 | 21.67° C | 37% | 1022 hPa | 0 mm | - | - | - |
| 1777757417 | 21.11° C | 37% | 1022 hPa | 0 mm | - | - | - |
| 1777757117 | 21.11° C | 37% | 1022 hPa | 0 mm | - | - | - |
| 1777756828 | 21.11° C | 36% | 1022.1 hPa | 0 mm | - | - | - |
| 1777756517 | 21.11° C | 36% | 1022.3 hPa | 0 mm | - | - | - |
| 1777756220 | 21.67° C | 37% | 1022.3 hPa | 0 mm | - | - | - |
| 1777755918 | 20.56° C | 37% | 1022.2 hPa | 0 mm | - | - | - |
| 1777755622 | 21.11° C | 36% | 1022.3 hPa | 0 mm | - | - | - |
| 1777755317 | 21.11° C | 38% | 1022.3 hPa | 0 mm | - | - | - |
| 1777755024 | 20.56° C | 39% | 1022.4 hPa | 0 mm | - | - | - |
| 1777754718 | 20° C | 39% | 1022.3 hPa | 0 mm | - | - | - |
* Rain latest hour (hover to see other rain measurements)
** Current wind speed in m/s (hover to see current wind gust speed)